Погода в Фианаранцуа

Мадагаскар     20°45′36″S   46°27′12″E
темп.,
°C
ветер,
м/с
пор.,
м/с
влажн.,
%
обл.,
%
осадки,
мм/ч
давл.,
гПа
погр.,
м
1 марта, пн
пн100:00+18всв2488100 0.3 1011130
03:00+17всв389384 0.3 1011250
06:00+17всв48938 0.2 1011290
09:00+21всв587952 0.2 1012753
12:00+25всв356869 2.7 10101110
15:00+24в237269 11.5 1009696
18:00+20всв3588100 6.4 1010157
21:00+18в4994100 11.9 1014375
2 марта, вт
вт200:00+17всв51091100 0.4 1013433
03:00+16всв6119099 0.4 1013371
06:00+16всв6118992 0.0 1013396
09:00+20всв587890 0.0 1014613
12:00+25всв456298 0.0 10121178
15:00+24всв237062 1.6 1010979
18:00+20в228760 4.4 101180
21:00+18всв499267 7.4 1013306
3 марта, ср
ср300:00+17св489299 0.2 1013346
03:00+17св359192 0.2 1011196
06:00+16св239298 0.0 101258
09:00+22ссв127359 0.0 1012624
12:00+24юз116999 0.8 1009969
15:00+22юз227899 3.4 1008551
18:00+20юв1190100 2.9 1009108
21:00+18в129095 5.0 101129
4 марта, чт
чт400:00+18св248960 0.9 101093
03:00+18всв119080 1.7 100923
06:00+18в1193100 0.3 100927
09:00+21ссв1282100 0.6 1010411
12:00+24ююз026965 3.2 10071082
15:00+22юз228070 8.6 1006626
18:00+18ююв1298100 22.8 1007142
21:00+18всв51097100 71.3 1009511
5 марта, пт
пт500:00+18всв3697100 16.7 1009381
03:00+17в4896100 21.3 1007383
06:00+17в5996100 5.8 1008440
09:00+18св3696100 12.3 1008340
12:00+18св3795100 9.1 1007548
15:00+17всв61096100 36.3 1005643
18:00+17всв5996100 24.1 1006525
21:00+17св4997100 41.9 1007528